Theta_e
316 317 317 315 315 316 316 316 316 315 314 314 315 316 316 316 312 299 296 305 308 315 311 300 299 299 299 295 301 307 298 295 296 297 300 303 300 307 308 307 309 316 315 319 322
317 316 315 315 315 315 315 315 315 314 314 314 315 316 316 316 298 294 307 314 315 314 298 296 296 298 294 294 294 297 296 296 301 297 293 295 296 298 303 303 304 307 315 322 319
316 315 315 314 314 315 315 315 314 313 313 314 315 317 316 309 289 291 310 314 314 308 299 298 298 297 292 293 292 291 291 291 293 294 292 293 293 297 296 297 305 305 306 313 319
315 314 313 313 313 314 315 314 312 312 313 313 315 316 313 293 280 295 311 313 312 303 300 298 294 290 289 287 291 285 291 290 292 293 291 290 293 292 295 296 303 304 306 309 318
314 313 313 313 313 314 314 312 312 313 313 313 315 314 295 288 289 299 308 305 301 300 296 296 294 289 284 287 287 286 289 290 291 291 290 291 288 289 290 295 298 300 304 306 316
313 313 314 314 313 314 313 311 312 313 313 313 315 310 290 283 297 298 299 300 298 298 295 297 295 295 290 287 284 288 289 288 289 289 289 288 288 288 290 292 293 294 294 296 303
313 313 313 314 314 313 312 312 312 313 313 313 314 301 290 287 296 298 299 297 298 297 293 296 298 294 292 287 291 290 285 285 285 286 286 289 282 285 288 291 292 292 292 293 295
313 313 313 313 313 312 311 312 312 313 312 313 311 292 285 295 297 297 298 296 298 299 297 298 299 296 292 291 287 282 280 277 282 286 287 286 278 286 291 290 290 291 290 291 294
313 312 312 313 312 311 311 311 312 310 310 307 294 286 283 300 294 296 296 294 296 296 297 301 297 289 287 281 278 280 276 277 280 286 285 284 281 287 291 290 289 291 291 292 291
313 312 312 312 310 312 309 309 307 302 299 295 294 284 288 289 294 296 296 297 294 292 291 290 286 281 281 280 273 277 277 279 279 283 285 283 283 287 290 290 289 290 291 291 291
312 312 312 311 310 309 299 290 287 286 291 285 286 286 289 294 295 294 296 293 292 289 282 285 280 278 279 281 282 281 279 279 282 285 282 282 283 285 288 288 287 287 288 288 289
312 312 311 310 309 307 297 291 290 291 283 289 289 290 292 292 288 291 296 288 287 282 284 280 277 282 285 284 282 281 280 279 282 284 284 282 281 285 287 285 285 286 289 291 293
311 312 310 308 306 298 295 294 300 296 283 285 288 289 289 291 286 288 292 288 284 281 281 278 279 285 284 281 281 281 280 280 280 282 283 281 279 281 284 284 288 291 292 293 292
311 311 308 308 297 294 292 299 299 295 276 280 284 288 290 289 283 291 293 289 284 280 281 279 283 282 281 281 282 279 282 281 280 278 270 281 272 279 282 284 288 290 292 292 291
311 309 307 302 293 289 295 299 296 289 270 281 284 293 290 286 286 286 292 288 281 281 280 276 279 280 280 281 284 280 283 281 280 278 279 277 275 277 282 281 288 290 290 292 292
311 307 307 299 294 294 297 294 290 278 269 277 282 283 282 284 284 286 286 289 286 280 280 279 283 282 281 284 283 283 281 280 279 278 267 276 277 276 280 285 287 288 289 289 290
309 306 300 299 290 296 294 287 276 272 278 273 278 282 281 281 281 281 281 280 277 269 270 276 277 280 283 279 282 281 275 264 265 263 265 278 276 279 283 286 285 285 287 289 289
306 301 298 296 294 294 288 280 270 266 267 280 280 281 278 279 280 279 280 276 280 275 270 268 267 278 281 279 277 279 274 265 262 263 270 279 274 279 289 288 289 289 289 289 289
303 293 292 293 295 290 282 271 274 270 275 277 276 269 268 277 277 276 275 276 279 279 268 268 270 279 279 280 281 275 270 280 275 271 272 275 279 284 287 287 289 288 288 287 287
293 291 290 294 293 285 277 277 273 280 282 278 270 268 265 265 273 274 272 278 280 282 280 275 266 277 279 281 282 278 282 271 270 265 265 271 275 277 281 284 287 287 287 286 287
292 286 292 294 289 281 273 270 276 282 283 278 270 265 268 267 270 267 270 278 280 280 280 278 273 273 277 276 275 272 270 276 277 275 270 269 273 283 284 286 285 286 286 285 283
290 281 292 291 278 269 272 274 284 282 284 282 279 276 270 270 266 270 272 276 282 280 273 280 273 268 271 277 278 278 275 279 272 271 274 274 273 286 288 288 286 285 285 283 283
287 285 293 289 277 274 273 282 283 282 282 282 280 281 277 270 268 270 275 281 282 281 275 277 267 263 266 273 277 276 279 279 278 275 271 270 273 287 288 286 285 284 282 282 282
288 282 285 286 282 279 275 277 279 284 282 283 282 281 277 271 276 269 276 280 282 281 286 283 271 264 263 270 273 272 275 277 276 272 273 275 277 283 284 282 283 281 281 281 281
289 285 283 278 279 280 281 280 279 277 282 283 281 281 278 269 271 269 275 277 280 283 280 279 267 267 271 273 273 273 273 275 273 275 273 277 278 282 281 281 283 280 280 279 279
286 285 283 279 283 280 283 278 279 278 281 280 278 281 279 274 275 269 273 275 276 278 277 278 265 273 267 273 274 272 275 276 277 278 278 281 280 284 283 284 281 279 278 277 278
291 290 289 284 282 279 279 281 280 282 282 283 281 280 279 280 279 278 279 279 279 276 273 274 269 264 260 270 270 267 276 280 278 282 282 278 280 282 280 281 279 278 278 277 278
Wind_Speed
10 12 12 13 13 14 15 15 16 16 16 16 15 13 12 12 8 8 12 10 12 18 15 9 5 6 2 2 3 2 1 4 4 3 5 8 9 4 4 4 5 4 2 7 4
11 11 12 13 13 13 14 14 15 16 16 15 15 14 12 6 3 8 11 19 18 19 7 7 7 8 4 4 4 3 3 5 2 4 5 8 3 9 6 7 4 7 2 5 3
10 11 13 13 13 13 14 14 15 15 15 15 15 15 9 2 4 5 16 21 18 13 4 2 2 2 5 3 5 5 3 5 4 6 8 6 7 5 6 7 7 7 10 7 4
10 12 12 13 13 14 14 15 16 15 15 14 15 16 4 2 4 6 20 19 14 8 9 10 7 6 5 4 5 4 4 3 7 7 8 10 7 6 10 10 12 12 8 6 8
10 11 11 12 13 14 14 15 15 14 14 14 15 14 5 8 2 6 16 15 5 6 8 5 10 3 4 3 5 2 5 8 9 9 8 9 6 7 12 16 16 14 11 10 8
9 9 11 12 12 14 15 15 14 13 13 13 15 9 6 7 6 7 9 9 7 5 6 7 4 2 4 1 1 4 5 10 6 8 7 6 8 3 8 10 11 10 9 10 9
9 9 11 12 13 14 15 16 13 11 11 10 11 3 7 2 4 7 8 5 4 3 3 2 1 6 1 4 2 4 7 8 1 6 7 10 6 3 3 8 15 18 12 9 11
8 9 11 12 13 15 16 16 11 8 8 8 6 3 3 4 4 6 9 4 5 1 1 2 2 3 4 5 5 5 4 7 7 9 5 4 8 10 17 16 24 19 11 9 12
9 9 9 11 14 16 17 11 5 6 5 6 5 3 3 8 8 9 5 5 7 4 5 2 4 4 6 4 4 7 5 5 9 7 5 5 15 10 17 20 21 20 18 12 11
9 9 9 10 13 17 12 3 6 5 6 2 3 5 7 6 6 8 5 4 4 5 6 9 6 4 5 7 3 8 5 5 12 8 10 12 23 15 20 19 19 20 16 14 11
9 9 9 10 13 15 6 4 7 7 11 4 1 0 5 9 3 7 5 4 5 9 6 5 7 4 3 2 4 6 5 13 12 13 5 15 23 22 25 16 12 10 9 8 9
8 8 7 9 11 12 4 6 1 2 5 3 2 3 2 3 5 8 7 7 7 5 8 5 3 1 4 3 5 5 7 11 11 6 15 15 24 28 17 7 2 4 6 6 9
8 7 8 9 5 6 5 3 3 1 5 3 3 3 4 5 3 8 7 3 5 5 5 1 1 4 3 5 4 4 7 6 13 16 16 5 9 12 7 2 2 3 3 4 6
5 6 8 8 6 2 3 3 3 3 7 5 4 4 4 3 1 3 5 2 5 5 4 4 3 4 5 2 2 9 1 9 17 12 5 6 8 9 6 6 3 6 7 7 8
4 2 6 5 5 3 1 2 1 3 5 2 6 4 5 6 5 3 5 5 1 4 2 3 6 5 3 3 3 10 10 16 14 9 7 1 4 11 8 3 5 9 11 12 8
3 1 1 3 4 1 2 2 3 10 6 3 2 6 4 6 7 8 8 6 1 1 0 5 4 3 3 3 4 9 9 9 1 2 3 3 1 10 6 3 3 8 11 13 12
5 4 4 1 2 0 2 4 8 7 4 6 2 4 2 6 6 8 6 9 6 8 9 9 3 4 2 6 5 9 6 6 9 6 6 1 6 13 0 3 3 10 12 14 13
8 7 4 1 2 2 4 7 6 3 6 3 3 2 3 6 3 7 2 4 5 5 3 4 12 4 3 1 5 5 2 5 5 5 13 14 9 6 5 3 9 11 13 17 17
10 3 3 3 2 3 6 5 9 8 6 6 2 6 5 3 1 5 4 0 1 3 4 4 8 3 3 4 4 6 2 4 6 5 6 5 7 4 2 14 24 23 20 20 19
4 3 1 2 2 4 7 5 3 3 5 4 4 2 2 4 4 4 3 3 2 1 2 1 7 2 6 3 1 4 4 5 3 6 7 6 7 8 7 20 22 17 20 21 17
4 2 1 1 2 6 4 7 4 3 3 3 5 3 3 2 2 1 4 3 1 0 2 2 4 8 5 1 1 5 5 3 3 3 5 8 6 4 8 21 20 22 19 18 22
4 1 1 3 4 1 4 7 4 4 2 2 4 4 5 5 2 2 4 4 2 0 2 1 3 6 8 8 6 3 5 1 2 5 5 6 9 3 11 21 25 22 15 19 20
5 3 0 3 4 2 4 1 3 5 4 5 3 2 3 5 2 3 4 2 3 4 4 2 3 6 11 6 3 2 3 1 3 3 8 5 9 16 21 27 25 18 20 19 19
4 4 2 2 1 7 6 4 4 1 4 4 4 4 4 2 1 3 3 1 1 1 2 5 3 8 8 9 2 10 12 12 6 5 5 11 20 25 25 28 25 17 19 19 18
1 4 3 6 5 4 5 7 6 6 2 4 1 6 6 4 0 4 3 2 1 2 2 3 4 4 11 19 14 16 19 18 8 15 6 13 22 21 26 26 16 17 18 19 18
6 6 1 1 4 8 5 8 11 4 9 5 5 8 7 7 8 9 6 4 5 1 3 1 4 4 6 4 3 14 17 16 14 14 14 13 23 19 24 20 13 18 18 17 18
2 2 2 5 4 5 6 7 9 9 4 2 8 6 7 9 6 3 2 2 4 7 4 4 1 4 8 6 10 5 5 4 6 7 5 12 19 20 22 20 14 19 17 16 16
Wind_Direction
353 348 357 355 350 346 348 348 350 352 354 354 353 349 341 334 335 24 40 342 343 339 331 311 349 345 74 20 5 106 75 240 252 210 260 18 7 313 292 250 347 312 296 291 102
342 355 351 347 342 342 345 346 347 347 352 355 350 345 336 331 22 36 355 351 345 346 358 4 350 349 43 16 18 88 195 233 39 13 343 324 330 329 311 318 302 306 257 15 122
357 347 346 341 338 340 342 344 346 345 352 353 348 344 345 78 57 329 338 346 347 354 333 259 301 46 68 30 4 340 226 339 310 342 353 304 305 325 298 288 240 304 315 346 201
350 344 340 335 335 337 340 343 344 345 347 353 349 347 18 42 66 287 338 343 346 356 17 18 19 42 63 37 342 359 3 26 304 325 325 303 294 282 257 254 279 288 276 277 228
345 341 339 336 336 334 339 337 341 346 347 353 352 351 58 42 61 298 332 336 0 8 25 30 41 37 63 345 346 49 321 315 305 302 289 279 265 270 279 276 284 297 298 292 263
339 338 334 332 333 333 332 330 335 345 348 351 357 3 62 71 255 325 331 336 0 16 6 28 48 101 97 344 53 304 286 289 298 314 302 321 293 261 312 4 345 335 323 315 307
333 335 335 333 330 331 324 322 327 337 339 346 356 39 62 140 332 330 342 300 306 353 13 29 46 61 348 345 4 308 325 328 23 324 300 343 326 209 298 316 319 308 292 285 292
328 333 333 330 329 323 319 316 319 329 328 337 11 55 78 328 312 349 333 356 352 358 299 359 60 79 41 322 13 20 50 359 325 321 299 27 292 340 318 318 302 295 285 262 269
323 330 333 330 328 320 319 316 338 337 344 4 46 40 0 331 6 322 357 320 306 6 24 56 59 72 12 29 20 19 302 301 311 293 271 39 294 278 297 284 289 290 289 285 273
320 327 331 330 329 328 327 352 352 52 359 15 68 47 19 310 299 315 315 353 12 354 14 30 42 68 28 33 338 304 310 284 291 276 307 293 275 295 291 291 285 284 284 286 280
317 326 330 335 339 349 1 12 20 353 39 92 288 97 315 296 282 326 333 3 19 55 17 345 54 44 344 300 252 260 260 282 280 288 298 282 297 295 282 298 291 295 306 310 315
313 320 327 337 347 3 61 70 50 175 74 13 328 343 272 319 349 331 14 49 42 18 341 16 66 358 296 307 277 279 285 293 293 321 312 302 299 281 290 262 273 335 4 346 343
312 315 323 330 350 38 69 68 319 266 96 12 360 349 324 10 346 312 28 24 62 22 19 155 251 323 29 320 337 295 266 295 293 318 293 311 285 295 318 277 172 48 302 319 339
303 315 335 327 48 306 42 337 344 280 75 315 339 350 340 342 77 307 14 40 8 351 335 228 306 354 330 302 33 312 341 302 291 332 289 47 285 303 303 302 46 343 347 329 327
273 311 28 52 146 70 180 341 4 29 33 289 314 302 338 59 305 328 344 22 340 306 42 282 328 352 326 348 356 263 320 285 294 285 287 304 259 278 287 323 16 351 338 340 318
199 252 329 18 56 354 350 32 53 45 267 335 312 353 12 13 359 318 3 28 264 348 121 266 303 242 253 301 261 294 300 298 295 269 8 238 184 286 296 21 331 333 335 334 327
152 91 61 20 148 333 47 45 42 124 352 289 348 29 91 345 352 23 18 17 29 25 6 328 272 292 358 350 341 358 354 340 357 3 232 188 287 248 338 80 322 318 323 331 324
130 100 23 24 123 113 52 49 87 217 219 355 348 47 71 3 13 350 23 32 25 63 58 21 330 22 17 118 286 320 107 131 291 298 292 280 234 266 123 245 333 325 318 334 329
123 18 47 330 50 74 78 56 203 202 170 149 10 64 326 356 5 18 15 191 63 54 118 20 282 311 256 224 132 293 352 220 269 265 272 262 292 279 333 342 344 340 334 326 321
101 100 213 313 94 65 75 232 171 184 132 99 147 123 177 287 7 45 341 271 114 104 170 194 298 274 297 325 234 161 297 354 337 313 292 275 282 261 341 342 332 326 323 320 327
84 76 227 11 80 51 168 214 203 222 122 116 183 123 196 197 190 243 250 283 12 157 356 109 130 292 346 120 106 340 352 342 267 240 291 307 277 218 340 338 329 328 324 331 322
136 152 217 106 63 318 163 183 175 140 137 97 112 114 155 164 177 260 242 224 10 137 117 109 176 277 263 279 257 246 203 127 256 311 275 264 268 275 327 337 332 325 333 325 322
150 131 348 124 163 231 310 132 172 133 171 162 144 125 144 161 27 211 255 275 284 196 163 205 331 320 346 353 15 311 223 230 301 261 237 273 278 314 327 332 331 334 336 330 324
143 131 340 59 265 145 145 212 164 185 138 134 132 124 108 88 172 246 247 260 309 238 263 173 162 180 207 240 15 296 292 285 269 260 273 259 289 317 333 327 327 347 336 333 330
194 206 192 189 235 176 141 148 131 168 169 170 171 207 156 152 359 237 257 291 193 286 91 114 239 198 249 263 272 269 273 284 256 251 260 288 304 325 328 325 339 342 338 338 338
143 154 78 136 125 126 174 210 160 197 151 212 211 185 163 172 187 205 157 216 199 224 146 80 271 315 287 282 114 282 274 261 260 266 265 287 308 336 325 324 348 349 342 342 346
166 81 164 153 136 124 209 185 189 145 238 167 176 126 194 230 174 151 163 156 177 156 182 163 117 15 272 323 312 335 243 254 267 242 253 324 313 324 322 329 6 347 346 346 347